Location: Muenchen
(48.1800°N, 11.5800°E)
Time: 02:58:07
(UTC+01:00)

ISS - Visible Passes

Search period start: 08 February 2016 00:00
Search period end: 18 February 2016 00:00
Orbit: 399 x 408 km, 51.6° (Epoch: 07 February)

Date Brightness Start Highest point End Pass type
(mag) Time Alt. Az. Time Alt. Az. Time Alt. Az.
08 Feb -3.0 18:38:02 10° W 18:41:15 58° NNW 18:42:57 25° ENE visible
08 Feb -0.2 20:14:53 10° WNW 20:15:35 15° WNW 20:15:35 15° WNW visible
09 Feb -2.5 19:22:12 10° WNW 19:25:09 42° NNW 19:25:09 42° NNW visible
10 Feb -2.7 18:29:27 10° W 18:32:36 45° N 18:34:41 19° ENE visible
10 Feb -0.7 20:06:10 10° WNW 20:07:19 20° WNW 20:07:19 20° WNW visible
11 Feb -2.8 19:13:30 10° WNW 19:16:39 45° N 19:16:50 45° NNE visible
12 Feb -2.6 18:20:46 10° WNW 18:23:54 43° N 18:26:21 15° ENE visible
12 Feb -1.3 19:57:20 10° WNW 19:59:00 27° WNW 19:59:00 27° WNW visible
13 Feb -3.2 19:04:39 10° WNW 19:07:52 58° NNE 19:08:32 46° ENE visible
14 Feb -2.9 18:11:56 10° WNW 18:15:06 47° N 18:18:06 11° E visible
14 Feb -2.0 19:48:25 10° WNW 19:50:44 40° W 19:50:44 40° W visible
15 Feb -3.4 18:55:41 10° WNW 18:58:57 88° NNE 19:00:21 31° ESE visible
15 Feb 0.1 20:32:39 10° W 20:33:00 12° W 20:33:00 12° W visible
16 Feb -3.2 18:02:57 10° WNW 18:06:11 63° NNE 18:09:25 10° E visible
16 Feb -1.9 19:39:33 10° W 19:42:30 32° SW 19:42:42 31° SSW visible
17 Feb -2.7 18:46:40 10° WNW 18:49:51 52° SSW 18:52:29 14° SE visible
